Flag for France Weather past 2 weeks in Orléans, France

Now
45 °F

Clear.


Feels Like: 36 °F
Forecast: 39 / 51 °F
Wind: 21 mph from West

Location: Orleans Airport

Current Time: Mar 2, 2015 at 9:15:07 AM

Latest Report: Mar 2, 2015 at 8:30 AM


Visibility: N/A

Pressure: 29.89 "Hg

Humidity: 81%

Dew point: 39 °F

Location of OrléansLocation

Historic Weather in Orléans — Graph

°F

Orléans temperature yesterday

Maximum temperature yesterday: 54 °F (at 11:00 AM)
Minimum temperature yesterday: 45 °F (at 12:00 AM)
Average temperature yesterday: 51 °F

Past Weeks' High & Low Weather Summary

 TemperatureHumidityPressure
High54 °F (Mar 1, 11:00 AM)100% (Feb 15, 8:00 AM)30.72 "Hg (Feb 15, 8:00 AM)
Low25 °F (Feb 22, 8:00 AM)50% (Feb 27, 2:30 PM)29.47 "Hg (Feb 23, 5:30 AM)
Average41 °F87%30.02 "Hg
* Reported Feb 15 8:00 AM — Mar 2 8:00 AM, Orléans, Weather by CustomWeather, © 2015

Note: Actual official high and low records may vary slightly from our data, if they occured in-between our weather recording intervals... More about our weather records

Advertising

Orléans weather history for previous 24 hours

 ConditionsComfort  
Time TempWeatherWind HumidityBarometerVisibility
8:00 AM
Mon, Mar 2
43 °FClear.14 mph87%29.86 "HgN/A
7:30 AM43 °FClear.14 mph87%29.83 "HgN/A
7:00 AM43 °FPassing clouds.13 mph87%29.83 "HgN/A
6:30 AM45 °FLight rain. Partly cloudy.16 mph87%29.83 "HgN/A
6:00 AM46 °FPartly cloudy.9 mph82%29.80 "HgN/A
5:30 AM46 °FPassing clouds.6 mph82%29.80 "HgN/A
5:00 AM48 °FPartly cloudy.12 mph82%29.80 "HgN/A
4:30 AM48 °FPartly cloudy.16 mph82%29.80 "HgN/A
4:00 AM48 °FPartly cloudy.20 mph82%29.80 "HgN/A
3:30 AM50 °FPassing clouds.21 mph82%29.80 "HgN/A
3:00 AM50 °FPassing clouds.20 mph82%29.77 "HgN/A
2:30 AM50 °FPartly cloudy.22 mph82%29.77 "HgN/A
2:00 AM50 °FPassing clouds.21 mph88%29.77 "HgN/A
1:30 AM50 °FPartly cloudy.23 mph88%29.77 "HgN/A
1:00 AM50 °FPartly cloudy.22 mph88%29.77 "HgN/A
12:30 AM52 °FPartly cloudy.22 mph82%29.77 "HgN/A
12:00 AM52 °FPartly cloudy.22 mph82%29.77 "HgN/A
11:30 PM
Sun, Mar 1
52 °FPartly cloudy.22 mph82%29.77 "HgN/A
11:00 PM52 °FPartly cloudy.22 mph82%29.77 "HgN/A
10:30 PM52 °FPartly cloudy.21 mph88%29.77 "HgN/A
10:00 PM52 °FPassing clouds.20 mph88%29.77 "HgN/A
9:30 PM52 °FOvercast.22 mph94%29.77 "HgN/A
8:30 PM52 °FMostly cloudy.22 mph94%29.74 "Hg5 mi
8:00 PM52 °FMostly cloudy.21 mph88%29.74 "HgN/A
7:30 PM52 °FLight rain. Mostly cloudy.20 mph88%29.77 "HgN/A
7:00 PM52 °FLight rain. Passing clouds.18 mph82%29.77 "HgN/A
6:30 PM54 °FMostly cloudy.13 mph77%29.77 "HgN/A
6:00 PM52 °FClear.12 mph82%29.77 "HgN/A
5:30 PM52 °FOvercast.12 mph82%29.77 "HgN/A
5:00 PM52 °FBroken clouds.18 mph77%29.80 "HgN/A
4:30 PM54 °FMostly cloudy.18 mph72%29.80 "HgN/A
4:00 PM54 °FPartly sunny.17 mph72%29.80 "HgN/A
3:30 PM52 °FMore clouds than sun.20 mph77%29.83 "HgN/A
3:00 PM52 °FMostly cloudy.12 mph77%29.83 "HgN/A
2:30 PM52 °FOvercast.20 mph77%29.83 "HgN/A
2:00 PM54 °FMostly cloudy.15 mph77%29.83 "HgN/A
1:30 PM54 °FOvercast.18 mph72%29.83 "HgN/A
1:00 PM54 °FOvercast.21 mph77%29.83 "HgN/A
12:30 PM54 °FPartly sunny.18 mph77%29.86 "HgN/A
12:00 PM54 °FOvercast.15 mph77%29.86 "HgN/A
11:30 AM54 °FPartly sunny.17 mph77%29.86 "HgN/A
11:00 AM54 °FPartly sunny.15 mph82%29.83 "HgN/A
10:30 AM52 °FMostly cloudy.16 mph88%29.83 "HgN/A
10:00 AM52 °FOvercast.14 mph88%29.83 "HgN/A
9:30 AM52 °FMore clouds than sun.16 mph88%29.83 "HgN/A
9:00 AM52 °FOvercast.17 mph88%29.83 "HgN/A
Weather by CustomWeather, © 2015

See weather overviewHow to use our weather pages